�N����,����,�~����,�C��,���x,�C��,����,���ϕ���,�ő�u�ԕ���,�ő厞����,���˗�,�I�_���x,�n�����x,�ő啗���N��,DTYPE
"16/07/31","00:10",0.0,24.0,84.5,1006.2,302.7,0.7,1.3,319.4,0.00,21.3,27.0,"00:00:56",1
"16/07/31","00:20",0.0,23.7,85.4,1006.4,300.9,0.8,1.8,340.7,0.00,21.1,27.0,"00:10:02",1
"16/07/31","00:30",0.0,23.5,85.4,1006.4,297.9,0.7,1.1,314.5,0.00,20.9,26.8,"00:20:08",1
"16/07/31","00:40",0.0,23.5,85.9,1006.4,290.5,0.7,0.9,304.8,0.00,21.0,27.1,"00:38:56",1
"16/07/31","00:50",0.0,23.6,85.5,1006.4,296.9,0.7,1.0,319.5,0.00,21.1,26.7,"00:40:40",1
"16/07/31","01:00",0.0,23.6,85.6,1006.2,287.4,0.7,1.0,328.6,0.00,21.1,26.8,"00:58:16",1
"16/07/31","01:10",0.0,23.6,85.6,1006.4,298.7,0.6,0.9,343.0,0.00,21.1,26.7,"01:02:48",1
"16/07/31","01:20",0.0,23.5,86.0,1006.2,302.8,0.7,1.3,316.8,0.00,21.1,26.8,"01:13:28",1
"16/07/31","01:30",0.0,23.4,86.4,1006.4,293.6,0.7,1.0,306.9,0.00,21.0,26.7,"01:24:40",1
"16/07/31","01:40",0.0,23.3,86.7,1006.2,297.4,0.7,1.2,305.1,0.00,21.0,26.7,"01:39:28",1
"16/07/31","01:50",0.0,23.2,86.8,1006.2,292.5,0.7,1.1,312.4,0.00,20.9,26.6,"01:41:28",1
"16/07/31","02:00",0.0,23.2,87.1,1006.0,289.7,0.7,0.8,285.7,0.00,21.0,26.6,"01:52:40",1
"16/07/31","02:10",0.0,23.1,87.4,1006.4,302.4,0.8,1.6,323.2,0.00,20.9,26.5,"02:04:16",1
"16/07/31","02:20",0.0,23.1,87.9,1006.4,289.9,0.8,1.0,273.5,0.00,21.0,26.4,"02:16:32",1
"16/07/31","02:30",0.0,23.0,88.2,1006.4,295.1,0.7,1.0,292.1,0.00,21.0,26.5,"02:26:24",1
"16/07/31","02:40",0.0,23.0,88.5,1006.7,309.7,1.1,1.6,310.7,0.00,21.0,26.5,"02:34:24",1
"16/07/31","02:50",0.0,23.0,88.5,1006.4,289.4,0.8,1.3,321.5,0.00,21.0,26.2,"02:43:52",1
"16/07/31","03:00",0.0,23.1,88.3,1006.7,286.3,0.7,1.0,260.9,0.00,21.1,26.2,"02:50:16",1
"16/07/31","03:10",0.0,23.2,88.2,1006.7,292.6,0.6,1.1,303.9,0.00,21.2,26.2,"03:05:28",1
"16/07/31","03:20",0.0,23.3,87.8,1006.7,287.4,0.6,1.1,315.0,0.00,21.2,26.3,"03:11:20",1
"16/07/31","03:30",0.0,23.4,87.5,1006.7,300.8,0.7,1.0,310.6,0.00,21.2,26.1,"03:28:32",1
"16/07/31","03:40",0.0,23.5,87.2,1006.9,292.4,0.6,1.0,305.1,0.00,21.3,26.4,"03:35:36",1
"16/07/31","03:50",0.0,23.6,86.9,1006.7,292.5,0.6,1.0,318.1,0.00,21.3,26.1,"03:44:56",1
"16/07/31","04:00",0.0,23.6,86.8,1006.7,298.3,0.7,1.0,323.2,0.00,21.3,26.1,"03:56:16",1
"16/07/31","04:10",0.0,23.7,87.1,1006.4,297.2,0.5,0.8,305.8,0.00,21.5,26.1,"04:04:00",1
"16/07/31","04:20",0.0,23.7,87.9,1006.9,299.2,0.6,0.8,313.6,0.00,21.6,26.1,"04:18:56",1
"16/07/31","04:30",0.0,23.7,88.4,1006.9,324.9,0.8,1.3,325.5,0.00,21.7,26.2,"04:24:40",1
"16/07/31","04:40",0.0,23.5,88.4,1006.7,306.9,0.7,1.2,322.4,0.00,21.5,26.0,"04:30:24",1
"16/07/31","04:50",0.0,23.4,88.3,1006.9,297.5,0.7,0.8,277.9,0.00,21.4,26.1,"04:40:16",1
"16/07/31","05:00",0.0,23.3,88.7,1006.7,296.3,0.7,1.1,320.6,0.00,21.4,26.2,"04:52:00",1
"16/07/31","05:10",0.0,23.2,88.9,1007.1,292.4,0.7,1.1,320.5,0.00,21.3,25.9,"05:01:44",1
"16/07/31","05:20",0.0,23.1,89.4,1006.9,290.9,0.7,1.2,306.6,0.00,21.3,26.0,"05:12:40",1
"16/07/31","05:30",0.0,23.0,90.0,1006.9,291.4,0.8,1.0,312.6,0.00,21.3,25.8,"05:25:52",1
"16/07/31","05:40",0.0,23.0,90.4,1006.9,283.8,0.7,0.8,290.2,0.00,21.4,25.7,"05:30:16",1
"16/07/31","05:50",0.0,23.0,90.5,1007.1,290.4,0.7,1.1,323.0,0.00,21.4,25.7,"05:44:00",1
"16/07/31","06:00",0.0,23.2,90.6,1006.9,293.7,0.6,0.9,284.7,0.00,21.6,25.8,"05:51:28",1
"16/07/31","06:10",0.0,23.5,90.5,1006.9,266.7,0.3,1.0,245.0,0.01,21.9,25.8,"06:09:20",1
"16/07/31","06:20",0.0,24.2,89.6,1006.9,281.5,0.5,1.0,250.7,0.02,22.4,25.9,"06:10:48",1
"16/07/31","06:30",0.0,25.0,87.2,1006.9,339.7,0.7,1.2,337.5,0.04,22.8,25.7,"06:28:40",1
"16/07/31","06:40",0.0,25.9,85.0,1006.7,341.3,0.2,0.8,350.6,0.05,23.2,25.9,"06:30:08",1
"16/07/31","06:50",0.0,26.3,81.5,1007.1,7.4,0.5,1.0,334.8,0.07,22.9,26.0,"06:42:08",1
"16/07/31","07:00",0.0,27.0,80.9,1006.7,355.3,0.1,1.0,58.2,0.09,23.5,26.0,"06:53:12",1
"16/07/31","07:10",0.0,27.5,75.0,1006.9,359.2,0.3,1.2,355.1,0.11,22.7,25.8,"07:04:40",1
"16/07/31","07:20",0.0,28.1,74.1,1006.7,168.7,0.1,0.6,172.8,0.13,23.1,26.2,"07:13:52",1
"16/07/31","07:30",0.0,28.0,75.4,1006.0,182.2,0.3,1.4,224.6,0.15,23.3,26.2,"07:25:28",1
"16/07/31","07:40",0.0,28.2,71.7,1006.7,188.8,0.3,1.0,167.8,0.17,22.6,26.4,"07:38:08",1
"16/07/31","07:50",0.0,28.5,70.9,1006.4,74.0,0.7,1.3,162.5,0.20,22.7,26.5,"07:40:56",1
"16/07/31","08:00",0.0,28.9,70.0,1006.4,106.5,0.6,1.3,77.7,0.22,22.9,26.6,"07:54:40",1
"16/07/31","08:10",0.0,29.1,71.5,1006.9,139.8,0.8,1.7,123.0,0.25,23.5,26.9,"08:01:52",1
"16/07/31","08:20",0.0,29.6,68.8,1007.4,147.7,0.8,1.4,173.0,0.27,23.3,27.0,"08:11:20",1
"16/07/31","08:30",0.0,30.0,68.2,1007.1,98.2,0.7,1.7,35.5,0.29,23.5,27.2,"08:22:56",1
"16/07/31","08:40",0.0,30.0,64.3,1007.4,175.6,1.0,1.6,171.6,0.31,22.6,27.3,"08:32:56",1
"16/07/31","08:50",0.0,30.9,61.6,1007.4,79.9,0.6,1.9,358.6,0.34,22.7,27.4,"08:40:16",1
"16/07/31","09:00",0.0,30.9,63.2,1007.4,152.4,0.6,1.6,181.2,0.36,23.1,27.8,"08:53:04",1
"16/07/31","09:10",0.0,31.3,61.2,1007.8,118.5,0.5,2.1,105.5,0.38,23.0,27.8,"09:08:56",1
"16/07/31","09:20",0.0,31.4,59.0,1008.1,122.1,0.7,2.2,130.7,0.40,22.5,28.0,"09:13:04",1
"16/07/31","09:30",0.0,31.7,58.7,1007.8,51.8,0.8,2.1,353.4,0.42,22.7,28.2,"09:21:44",1
"16/07/31","09:40",0.0,31.8,57.1,1008.1,60.9,1.0,2.5,2.8,0.44,22.3,28.4,"09:30:32",1
"16/07/31","09:50",0.0,32.7,58.1,1008.1,51.6,0.7,1.9,5.2,0.45,23.4,28.5,"09:42:40",1
"16/07/31","10:00",0.0,32.3,56.6,1008.1,135.8,1.0,2.5,127.4,0.46,22.6,29.0,"09:53:52",1
"16/07/31","10:10",0.0,32.7,54.7,1008.3,100.4,0.7,2.5,36.0,0.47,22.4,29.2,"10:07:36",1
"16/07/31","10:20",0.0,32.9,57.3,1007.8,154.7,0.8,2.0,171.0,0.50,23.4,29.0,"10:18:40",1
"16/07/31","10:30",0.0,33.2,59.2,1008.1,128.7,0.8,1.9,123.6,0.50,24.2,29.6,"10:24:32",1
"16/07/31","10:40",0.0,33.3,54.5,1007.8,177.0,1.5,2.7,205.7,0.51,22.9,29.9,"10:34:56",1
"16/07/31","10:50",0.0,33.5,55.0,1007.6,156.1,1.1,2.7,215.2,0.52,23.3,30.1,"10:44:32",1
"16/07/31","11:00",0.0,33.8,53.8,1007.1,177.1,1.3,3.4,189.5,0.53,23.2,30.3,"10:55:28",1
"16/07/31","11:10",0.0,33.9,49.7,1007.6,134.0,1.2,3.2,140.3,0.55,22.0,30.5,"11:08:08",1
"16/07/31","11:20",0.0,34.5,48.9,1007.4,162.9,1.1,3.6,228.8,0.55,22.2,30.7,"11:10:02",1
"16/07/31","11:30",0.0,34.5,49.7,1006.9,208.4,1.6,3.7,227.0,0.57,22.5,30.9,"11:22:08",1
"16/07/31","11:40",0.0,34.3,51.6,1006.9,204.2,1.8,3.9,214.3,0.57,22.9,31.1,"11:32:48",1
"16/07/31","11:50",0.0,34.7,46.9,1006.9,218.7,1.1,3.5,230.4,0.58,21.7,31.4,"11:40:24",1
"16/07/31","12:00",0.0,35.1,46.2,1006.9,204.8,1.8,4.4,228.2,0.59,21.9,31.7,"11:59:44",1
"16/07/31","12:10",0.0,35.4,47.1,1006.0,192.4,1.8,4.1,213.8,0.62,22.4,31.7,"12:07:20",1
"16/07/31","12:20",0.0,34.3,49.6,1006.2,239.8,1.1,3.7,220.0,0.35,22.3,32.1,"12:17:20",1
"16/07/31","12:30",0.0,34.8,47.6,1005.7,259.1,0.8,3.5,222.0,0.37,22.1,32.2,"12:20:16",1
"16/07/31","12:40",0.0,35.8,47.7,1006.0,37.4,0.8,3.1,348.7,0.59,23.0,32.2,"12:37:36",1
"16/07/31","12:50",0.0,35.6,46.9,1006.0,95.5,0.8,2.2,123.9,0.58,22.6,32.3,"12:48:16",1
"16/07/31","13:00",0.0,36.0,47.2,1006.2,157.5,1.3,2.7,167.3,0.59,23.0,32.4,"12:56:08",1
"16/07/31","13:10",0.0,36.0,46.2,1006.0,161.7,1.1,2.4,184.7,0.57,22.7,32.3,"13:00:16",1
"16/07/31","13:20",0.0,34.2,46.4,1006.0,193.1,1.6,4.7,229.7,0.18,21.1,32.3,"13:18:32",1
"16/07/31","13:30",0.0,34.0,49.9,1005.2,220.3,1.5,3.7,222.1,0.21,22.1,32.3,"13:22:40",1
"16/07/31","13:40",0.0,33.9,51.0,1005.0,303.2,0.6,2.4,357.8,0.13,22.4,32.3,"13:35:20",1
"16/07/31","13:50",0.0,35.0,51.7,1004.5,146.5,0.3,0.9,218.7,0.30,23.6,32.1,"13:40:32",1
"16/07/31","14:00",0.0,36.5,47.3,1005.0,31.9,0.6,2.0,29.1,0.55,23.5,31.9,"13:52:08",1
"16/07/31","14:10",0.0,37.2,40.5,1005.5,31.4,0.6,2.2,12.9,0.54,21.6,32.1,"14:09:28",1
"16/07/31","14:20",0.0,34.7,49.2,1005.2,286.8,0.5,2.6,350.7,0.17,22.5,32.0,"14:19:12",1
"16/07/31","14:30",0.0,33.8,51.3,1004.8,299.6,0.3,1.7,347.5,0.10,22.4,32.0,"14:22:08",1
"16/07/31","14:40",0.0,34.5,52.0,1004.8,210.5,0.7,2.2,226.5,0.18,23.3,31.9,"14:36:08",1
"16/07/31","14:50",1.8,33.5,55.7,1004.1,331.7,0.5,2.6,59.2,0.04,23.5,32.0,"14:49:44",1
"16/07/31","15:00",3.6,30.0,67.9,1001.7,290.1,1.6,6.6,356.2,0.07,23.5,31.5,"14:52:40",1
"16/07/31","15:10",0.8,29.0,77.5,1001.0,234.1,1.6,3.5,212.4,0.17,24.7,31.3,"15:04:42",1
"16/07/31","15:20",0.0,28.5,78.2,1000.8,350.7,0.6,3.1,346.3,0.06,24.4,31.0,"15:11:20",1
"16/07/31","15:30",0.0,28.2,79.9,1001.0,338.7,0.6,1.7,359.4,0.05,24.4,30.8,"15:22:08",1
"16/07/31","15:40",0.0,28.1,81.7,1001.2,302.5,0.2,1.0,207.1,0.04,24.7,30.7,"15:37:12",1
"16/07/31","15:50",0.0,28.1,81.5,1001.5,332.5,0.7,2.4,28.0,0.03,24.7,30.8,"15:49:36",1
"16/07/31","16:00",0.0,27.9,78.1,1001.9,327.0,0.8,1.9,345.2,0.01,23.8,30.6,"15:57:20",1
"16/07/31","16:10",0.0,27.8,76.9,1001.7,340.9,1.0,2.6,343.6,0.01,23.4,30.4,"16:04:16",1
"16/07/31","16:20",0.2,27.4,78.0,1001.9,337.9,1.0,3.2,25.0,0.02,23.3,30.3,"16:12:00",1
"16/07/31","16:30",0.0,26.6,80.5,1001.7,327.3,0.7,2.1,0.9,0.01,23.0,29.9,"16:22:08",1
"16/07/31","16:40",0.0,26.5,82.3,1002.4,348.3,1.6,3.5,38.5,0.01,23.3,29.9,"16:36:32",1
"16/07/31","16:50",1.8,26.7,81.2,1002.6,318.6,1.1,2.4,358.7,0.02,23.2,29.9,"16:48:00",1
"16/07/31","17:00",4.2,25.9,84.0,1002.6,326.1,1.1,2.8,1.4,0.03,23.0,29.5,"16:51:20",1
"16/07/31","17:10",1.2,26.0,86.6,1002.6,289.7,1.1,2.5,227.4,0.09,23.6,29.1,"17:03:12",1
"16/07/31","17:20",0.2,26.5,86.5,1002.6,350.4,1.5,2.7,342.2,0.09,24.1,29.1,"17:11:44",1
"16/07/31","17:30",0.0,27.1,85.4,1003.1,6.2,1.1,2.8,345.5,0.11,24.5,28.9,"17:21:04",1
"16/07/31","17:40",0.2,26.8,82.0,1003.6,1.0,1.8,5.7,2.5,0.12,23.5,29.1,"17:34:40",1
"16/07/31","17:50",0.0,26.8,82.7,1002.9,228.0,0.8,2.1,231.0,0.10,23.6,28.9,"17:44:56",1
"16/07/31","18:00",0.0,27.3,83.2,1002.9,311.8,0.6,1.1,216.9,0.05,24.2,29.1,"17:50:16",1
"16/07/31","18:10",0.0,27.1,84.4,1002.9,308.7,0.3,0.9,347.0,0.02,24.3,28.8,"18:02:00",1
"16/07/31","18:20",0.0,26.9,86.0,1003.1,310.9,0.3,1.3,342.9,0.01,24.4,28.9,"18:15:12",1
"16/07/31","18:30",0.0,26.8,87.1,1003.4,226.8,0.5,1.3,234.5,0.00,24.5,28.7,"18:25:04",1
"16/07/31","18:40",0.0,26.7,87.6,1003.1,248.9,0.3,0.9,234.5,0.00,24.5,28.7,"18:34:16",1
"16/07/31","18:50",0.0,26.5,88.2,1003.4,303.7,0.2,0.5,315.5,0.00,24.4,28.5,"18:40:48",1
"16/07/31","19:00",0.0,26.4,89.1,1003.1,343.4,0.3,1.1,341.1,0.00,24.5,28.4,"18:55:44",1
"16/07/31","19:10",0.0,26.1,89.7,1003.4,301.4,0.3,0.6,318.0,0.00,24.3,28.5,"19:03:04",1
"16/07/31","19:20",0.0,25.9,90.4,1003.6,341.4,0.5,1.2,340.2,0.00,24.2,28.5,"19:18:56",1
"16/07/31","19:30",0.0,25.6,90.5,1003.8,326.5,0.5,1.2,354.8,0.00,24.0,28.2,"19:22:00",1
"16/07/31","19:40",0.0,25.4,91.0,1003.4,305.8,0.1,0.5,146.3,0.00,23.9,28.4,"19:36:00",1
"16/07/31","19:50",0.0,25.3,91.3,1003.6,175.0,0.5,1.1,236.2,0.00,23.8,28.2,"19:46:40",1
"16/07/31","20:00",0.0,25.2,91.1,1003.4,266.6,0.7,1.7,248.5,0.00,23.7,28.1,"19:51:04",1
"16/07/31","20:10",0.0,25.1,91.3,1003.4,291.6,0.6,0.9,314.8,0.00,23.6,28.1,"20:06:48",1
"16/07/31","20:20",0.0,25.0,91.3,1003.8,326.3,0.5,1.2,357.8,0.00,23.5,27.9,"20:13:52",1
"16/07/31","20:30",0.0,24.8,91.5,1004.1,316.1,0.6,1.4,325.7,0.00,23.4,27.9,"20:22:00",1
"16/07/31","20:40",0.0,24.7,91.6,1003.6,320.2,0.5,1.0,344.6,0.00,23.3,27.9,"20:39:12",1
"16/07/31","20:50",0.0,24.6,91.8,1004.1,339.9,0.7,1.8,358.2,0.00,23.2,27.9,"20:40:24",1
"16/07/31","21:00",0.0,24.5,91.9,1003.6,316.8,0.7,1.1,339.5,0.00,23.1,27.8,"20:50:16",1
"16/07/31","21:10",0.0,24.4,91.9,1003.8,311.0,0.5,1.4,336.3,0.00,23.0,27.7,"21:01:04",1
"16/07/31","21:20",0.0,24.2,91.8,1004.1,308.2,0.5,1.2,340.5,0.00,22.8,27.5,"21:17:52",1
"16/07/31","21:30",0.0,24.0,92.1,1004.5,293.4,0.5,0.9,336.0,0.00,22.7,27.7,"21:21:36",1
"16/07/31","21:40",0.0,24.0,92.3,1004.5,288.5,0.5,1.1,316.9,0.00,22.7,27.6,"21:33:04",1
"16/07/31","21:50",0.0,24.0,92.6,1004.1,300.8,0.6,1.3,347.6,0.00,22.8,27.4,"21:47:28",1
"16/07/31","22:00",0.0,24.0,92.2,1004.3,349.9,0.8,1.4,348.8,0.00,22.7,27.2,"21:56:48",1
"16/07/31","22:10",0.0,23.9,92.1,1004.3,302.5,0.6,1.4,340.8,0.00,22.6,27.1,"22:00:24",1
"16/07/31","22:20",0.0,23.9,92.3,1004.5,322.2,0.2,1.0,320.8,0.00,22.6,27.2,"22:19:36",1
"16/07/31","22:30",0.0,23.8,92.4,1004.8,326.4,0.5,0.9,335.4,0.00,22.5,27.0,"22:23:20",1
"16/07/31","22:40",0.0,23.7,92.2,1004.5,302.5,0.5,1.0,312.1,0.00,22.4,27.2,"22:36:00",1
"16/07/31","22:50",0.0,23.6,92.5,1004.5,334.1,1.0,1.6,344.3,0.00,22.4,27.0,"22:45:52",1
"16/07/31","23:00",0.0,23.6,92.3,1004.5,309.3,0.3,1.1,340.7,0.00,22.3,26.9,"22:51:28",1
"16/07/31","23:10",0.0,23.5,92.7,1004.3,345.5,0.5,1.2,326.7,0.00,22.3,27.0,"23:08:16",1
"16/07/31","23:20",0.0,23.5,92.8,1005.0,289.6,0.6,1.1,336.1,0.00,22.3,26.8,"23:10:02",1
"16/07/31","23:30",0.0,23.4,92.8,1004.5,302.5,0.5,1.0,318.1,0.00,22.2,26.8,"23:22:00",1
"16/07/31","23:40",0.0,23.3,93.2,1004.5,285.8,0.5,1.0,349.8,0.00,22.2,26.8,"23:38:16",1
"16/07/31","23:50",0.0,23.3,93.4,1004.5,284.7,0.6,1.0,316.4,0.00,22.2,26.7,"23:41:12",1
"16/07/31","24:00",0.0,23.4,93.4,1004.8,311.7,0.3,0.8,314.6,0.00,22.3,26.7,"23:57:20",1
